{"data":{"norad_id":53169,"intl_designator":"2022-083AP","name":"STARLINK-4117","alt_names":[],"object_type":"PAYLOAD","status":"ACTIVE","operator":null,"country":"US","launch_date":"2022-07-17","launch_site_code":"AFETR","launch_vehicle":null,"mission":null,"orbit_class":"UNKNOWN","rcs_meters":null,"size_class":null,"mass_kg":null,"dimensions":null,"purposes":["comms"],"wikipedia_slug":null,"has_3d_model":false,"image_url":null,"decayed_at":null,"tle_current":{"epoch":"2026-09-20T05:15:23.086080Z","epoch_age_seconds":96564,"freshness":"FRESH","line1":"1 53169U 22083AP  26263.21901720 -.00000448  00000+0 -26659-5 0  9990","line2":"2 53169  53.1610 344.1263 0001099  91.4242 268.6885 15.31696779231087","mean_motion":15.31696779,"eccentricity":0.0001099,"inclination_deg":53.161,"raan_deg":344.1263,"arg_perigee_deg":91.4242,"mean_anomaly_deg":268.6885,"bstar":-2.6659e-6,"rev_number":23108,"period_min":94.013385661105,"perigee_km":469.99690423887,"apogee_km":471.50228951286,"semimajor_km":6848.8865968759,"source":"CELESTRAK","updated_at":"2026-09-20T09:00:40.185454Z"}}}